Time,TemperatureF,DewpointF,PressureIn,WindDirection,WindDirectionDegrees,WindSpeedMPH,WindSpeedGustMPH,Humidity,HourlyPrecipIn,Conditions,Clouds,dailyrainin,SoftwareType,DateUTC
2014-07-26 00:01:00,67.9,62.2,30.02,SW,231,0.0,0.0,82,0.00,,,0.00,vanprod-2.5,2014-07-26 04:01:00,
2014-07-26 00:02:00,67.9,62.2,30.02,SW,231,0.0,0.0,82,0.00,,,0.00,vanprod-2.5,2014-07-26 04:02:00,
2014-07-26 00:07:00,67.8,62.5,30.02,SW,231,0.0,0.0,83,0.00,,,0.00,vanprod-2.5,2014-07-26 04:07:00,
2014-07-26 00:12:00,67.7,62.7,30.02,SW,231,0.0,0.0,84,0.00,,,0.00,vanprod-2.5,2014-07-26 04:12:00,
2014-07-26 00:17:00,67.4,62.4,30.02,SW,231,0.0,0.0,84,0.00,,,0.00,vanprod-2.5,2014-07-26 04:17:00,
2014-07-26 00:22:00,67.2,62.2,30.02,SW,231,0.0,0.0,84,0.00,,,0.00,vanprod-2.5,2014-07-26 04:22:00,
2014-07-26 00:27:00,67.1,62.4,30.03,SW,231,0.0,0.0,85,0.00,,,0.00,vanprod-2.5,2014-07-26 04:27:00,
2014-07-26 00:32:00,66.9,61.9,30.03,SW,231,0.0,0.0,84,0.00,,,0.00,vanprod-2.5,2014-07-26 04:32:00,
2014-07-26 00:37:00,66.9,62.6,30.03,SW,231,0.0,0.0,86,0.00,,,0.00,vanprod-2.5,2014-07-26 04:37:00,
2014-07-26 00:42:00,66.8,62.8,30.03,SW,231,0.0,0.0,87,0.00,,,0.00,vanprod-2.5,2014-07-26 04:42:00,
2014-07-26 00:47:00,66.7,62.7,30.03,SW,231,0.0,0.0,87,0.00,,,0.00,vanprod-2.5,2014-07-26 04:47:00,
2014-07-26 00:52:00,66.7,62.7,30.03,SW,231,0.0,0.0,87,0.00,,,0.00,vanprod-2.5,2014-07-26 04:52:00,
2014-07-26 00:57:00,66.6,62.9,30.03,SW,231,0.0,0.0,88,0.00,,,0.00,vanprod-2.5,2014-07-26 04:57:00,
2014-07-26 01:02:00,66.6,62.9,30.03,SW,231,0.0,0.0,88,0.00,,,0.00,vanprod-2.5,2014-07-26 05:02:00,
2014-07-26 01:07:00,66.6,62.9,30.02,SW,231,0.0,0.0,88,0.00,,,0.00,vanprod-2.5,2014-07-26 05:07:00,
2014-07-26 01:12:00,66.4,62.4,30.03,SW,231,0.0,0.0,87,0.00,,,0.00,vanprod-2.5,2014-07-26 05:12:00,
2014-07-26 01:17:00,66.3,62.3,30.03,SW,231,0.0,0.0,87,0.00,,,0.00,vanprod-2.5,2014-07-26 05:17:00,
2014-07-26 01:22:00,66.2,62.2,30.02,SW,231,0.0,0.0,87,0.00,,,0.00,vanprod-2.5,2014-07-26 05:22:00,
2014-07-26 01:27:00,66.1,62.1,30.02,SW,231,0.0,0.0,87,0.00,,,0.00,vanprod-2.5,2014-07-26 05:27:00,
2014-07-26 01:32:00,66.1,62.4,30.02,SW,231,0.0,0.0,88,0.00,,,0.00,vanprod-2.5,2014-07-26 05:32:00,
2014-07-26 01:37:00,66.0,62.3,30.02,SW,231,0.0,0.0,88,0.00,,,0.00,vanprod-2.5,2014-07-26 05:37:00,
2014-07-26 01:42:00,66.0,62.3,30.02,SW,231,0.0,0.0,88,0.00,,,0.00,vanprod-2.5,2014-07-26 05:42:00,
2014-07-26 01:47:00,66.0,62.3,30.02,SW,231,0.0,0.0,88,0.00,,,0.00,vanprod-2.5,2014-07-26 05:47:00,
2014-07-26 01:52:00,65.9,62.3,30.02,SW,231,0.0,0.0,88,0.00,,,0.00,vanprod-2.5,2014-07-26 05:52:00,
2014-07-26 01:57:00,65.8,62.2,30.01,SW,231,0.0,0.0,88,0.00,,,0.00,vanprod-2.5,2014-07-26 05:57:00,
2014-07-26 02:02:00,65.7,62.1,30.01,SW,231,0.0,0.0,88,0.00,,,0.00,vanprod-2.5,2014-07-26 06:02:00,
2014-07-26 02:07:00,65.6,62.3,30.01,SW,231,0.0,0.0,89,0.00,,,0.00,vanprod-2.5,2014-07-26 06:07:00,
2014-07-26 02:12:00,65.5,62.2,30.01,SW,231,0.0,0.0,89,0.00,,,0.00,vanprod-2.5,2014-07-26 06:12:00,
2014-07-26 02:17:00,65.5,62.2,30.01,SW,231,0.0,0.0,89,0.00,,,0.00,vanprod-2.5,2014-07-26 06:17:00,
2014-07-26 02:22:00,65.4,62.1,30.01,SW,231,0.0,0.0,89,0.00,,,0.00,vanprod-2.5,2014-07-26 06:22:00,
2014-07-26 02:27:00,65.3,62.0,30.01,SW,231,0.0,0.0,89,0.00,,,0.00,vanprod-2.5,2014-07-26 06:27:00,
2014-07-26 02:32:00,65.4,62.4,30.00,SW,231,0.0,0.0,90,0.00,,,0.00,vanprod-2.5,2014-07-26 06:32:00,
2014-07-26 02:37:00,65.4,62.4,30.00,SW,231,0.0,0.0,90,0.00,,,0.00,vanprod-2.5,2014-07-26 06:37:00,
2014-07-26 02:42:00,65.2,62.2,30.00,SW,231,0.0,0.0,90,0.00,,,0.00,vanprod-2.5,2014-07-26 06:42:00,
2014-07-26 02:47:00,65.0,62.0,30.00,SW,231,0.0,0.0,90,0.00,,,0.00,vanprod-2.5,2014-07-26 06:47:00,
2014-07-26 02:52:00,64.9,62.2,30.00,SW,231,0.0,0.0,91,0.00,,,0.00,vanprod-2.5,2014-07-26 06:52:00,
2014-07-26 02:57:00,64.9,62.2,30.00,SW,231,0.0,0.0,91,0.00,,,0.00,vanprod-2.5,2014-07-26 06:57:00,
2014-07-26 03:02:00,65.0,62.3,30.00,SW,231,0.0,0.0,91,0.00,,,0.00,vanprod-2.5,2014-07-26 07:02:00,
2014-07-26 03:07:00,65.1,62.7,30.00,SW,231,0.0,0.0,92,0.00,,,0.00,vanprod-2.5,2014-07-26 07:07:00,
2014-07-26 03:12:00,65.3,62.9,30.00,SW,231,0.0,0.0,92,0.00,,,0.00,vanprod-2.5,2014-07-26 07:12:00,
2014-07-26 03:17:00,65.5,63.1,29.99,SW,230,0.0,0.0,92,0.00,,,0.00,vanprod-2.5,2014-07-26 07:17:00,
2014-07-26 03:22:00,65.5,63.1,29.99,SW,223,0.0,0.0,92,0.00,,,0.00,vanprod-2.5,2014-07-26 07:22:00,
2014-07-26 03:27:00,65.6,63.2,29.99,SW,229,0.0,0.0,92,0.00,,,0.00,vanprod-2.5,2014-07-26 07:27:00,
2014-07-26 03:32:00,65.6,63.2,29.99,SW,218,0.0,0.0,92,0.00,,,0.00,vanprod-2.5,2014-07-26 07:32:00,
2014-07-26 03:37:00,65.7,63.3,29.99,SW,220,0.0,0.0,92,0.00,,,0.00,vanprod-2.5,2014-07-26 07:37:00,
2014-07-26 03:42:00,65.7,63.3,29.99,SW,219,0.0,0.0,92,0.00,,,0.00,vanprod-2.5,2014-07-26 07:42:00,
2014-07-26 03:47:00,65.8,63.4,29.99,SW,230,0.0,0.0,92,0.00,,,0.00,vanprod-2.5,2014-07-26 07:47:00,
2014-07-26 03:52:00,65.8,63.4,29.99,SW,221,0.0,0.0,92,0.00,,,0.00,vanprod-2.5,2014-07-26 07:52:00,
2014-07-26 03:57:00,65.8,63.1,29.99,SW,221,0.0,0.0,91,0.00,,,0.00,vanprod-2.5,2014-07-26 07:57:00,
2014-07-26 04:02:00,65.8,63.1,29.98,SW,220,0.0,0.0,91,0.00,,,0.00,vanprod-2.5,2014-07-26 08:02:00,
2014-07-26 04:07:00,65.9,63.2,29.98,SW,217,0.0,0.0,91,0.00,,,0.00,vanprod-2.5,2014-07-26 08:07:00,
2014-07-26 04:12:00,65.9,62.9,29.98,SSE,147,0.0,0.0,90,0.00,,,0.00,vanprod-2.5,2014-07-26 08:12:00,
2014-07-26 04:17:00,66.0,63.0,29.98,SSE,150,0.0,0.0,90,0.00,,,0.00,vanprod-2.5,2014-07-26 08:17:00,
2014-07-26 04:22:00,66.1,62.8,29.98,SSE,150,0.0,0.0,89,0.00,,,0.00,vanprod-2.5,2014-07-26 08:22:00,
2014-07-26 04:27:00,66.2,62.9,29.98,SSE,150,0.0,0.0,89,0.00,,,0.00,vanprod-2.5,2014-07-26 08:27:00,
2014-07-26 04:32:00,66.2,63.2,29.98,SSE,150,0.0,0.0,90,0.00,,,0.00,vanprod-2.5,2014-07-26 08:32:00,
2014-07-26 04:37:00,66.1,63.1,29.98,SSE,155,0.0,0.0,90,0.00,,,0.00,vanprod-2.5,2014-07-26 08:37:00,
2014-07-26 04:42:00,66.1,63.1,29.98,SSW,197,0.0,0.0,90,0.00,,,0.00,vanprod-2.5,2014-07-26 08:42:00,
2014-07-26 04:47:00,66.1,63.1,29.98,SSW,211,0.0,0.0,90,0.00,,,0.00,vanprod-2.5,2014-07-26 08:47:00,
2014-07-26 04:52:00,66.1,63.1,29.98,SSW,211,0.0,0.0,90,0.00,,,0.00,vanprod-2.5,2014-07-26 08:52:00,
2014-07-26 04:57:00,66.1,63.1,29.98,SW,226,0.0,1.0,90,0.00,,,0.00,vanprod-2.5,2014-07-26 08:57:00,
2014-07-26 05:02:00,66.0,63.0,29.98,SW,220,0.0,0.0,90,0.00,,,0.00,vanprod-2.5,2014-07-26 09:02:00,
2014-07-26 05:07:00,66.1,63.1,29.98,SW,223,0.0,0.0,90,0.00,,,0.00,vanprod-2.5,2014-07-26 09:07:00,
2014-07-26 05:12:00,66.0,63.0,29.98,SW,224,1.0,1.0,90,0.00,,,0.00,vanprod-2.5,2014-07-26 09:12:00,
2014-07-26 05:17:00,66.1,63.1,29.98,SW,220,0.0,0.0,90,0.00,,,0.00,vanprod-2.5,2014-07-26 09:17:00,
2014-07-26 05:22:00,66.0,63.0,29.97,SW,222,0.0,0.0,90,0.00,,,0.00,vanprod-2.5,2014-07-26 09:22:00,
2014-07-26 05:27:00,66.0,63.0,29.98,SW,221,0.0,0.0,90,0.00,,,0.00,vanprod-2.5,2014-07-26 09:27:00,
2014-07-26 05:32:00,66.0,63.0,29.98,SW,221,0.0,0.0,90,0.00,,,0.00,vanprod-2.5,2014-07-26 09:32:00,
2014-07-26 05:37:00,65.9,62.9,29.98,SW,221,0.0,0.0,90,0.00,,,0.00,vanprod-2.5,2014-07-26 09:37:00,
2014-07-26 05:42:00,65.8,62.8,29.97,South,191,0.0,0.0,90,0.00,,,0.00,vanprod-2.5,2014-07-26 09:42:00,
2014-07-26 05:47:00,65.7,62.7,29.98,South,183,0.0,0.0,90,0.00,,,0.00,vanprod-2.5,2014-07-26 09:47:00,
2014-07-26 05:52:00,65.6,62.6,29.97,SSW,195,0.0,0.0,90,0.00,,,0.00,vanprod-2.5,2014-07-26 09:52:00,
2014-07-26 05:57:00,65.5,62.5,29.98,South,189,0.0,0.0,90,0.00,,,0.00,vanprod-2.5,2014-07-26 09:57:00,
2014-07-26 06:02:00,65.5,62.5,29.97,South,189,0.0,0.0,90,0.00,,,0.00,vanprod-2.5,2014-07-26 10:02:00,
2014-07-26 06:07:00,65.4,62.7,29.97,SSE,155,0.0,0.0,91,0.00,,,0.00,vanprod-2.5,2014-07-26 10:07:00,
2014-07-26 06:12:00,65.4,62.7,29.97,SSE,165,0.0,0.0,91,0.00,,,0.00,vanprod-2.5,2014-07-26 10:12:00,
2014-07-26 06:17:00,65.3,62.6,29.97,South,169,0.0,0.0,91,0.00,,,0.00,vanprod-2.5,2014-07-26 10:17:00,
2014-07-26 06:22:00,65.2,62.5,29.97,SW,229,0.0,0.0,91,0.00,,,0.00,vanprod-2.5,2014-07-26 10:22:00,
2014-07-26 06:27:00,65.2,62.5,29.97,SW,215,0.0,0.0,91,0.00,,,0.00,vanprod-2.5,2014-07-26 10:27:00,
2014-07-26 06:32:00,65.1,62.4,29.97,SW,214,0.0,0.0,91,0.00,,,0.00,vanprod-2.5,2014-07-26 10:32:00,
2014-07-26 06:37:00,65.1,62.4,29.97,SW,226,0.0,1.0,91,0.00,,,0.00,vanprod-2.5,2014-07-26 10:37:00,
2014-07-26 06:42:00,65.0,62.3,29.97,SW,216,1.0,1.0,91,0.00,,,0.00,vanprod-2.5,2014-07-26 10:42:00,
2014-07-26 06:47:00,65.0,62.3,29.97,SW,228,0.0,0.0,91,0.00,,,0.00,vanprod-2.5,2014-07-26 10:47:00,
2014-07-26 06:52:00,64.9,62.5,29.97,SW,222,1.0,1.0,92,0.00,,,0.00,vanprod-2.5,2014-07-26 10:52:00,
2014-07-26 06:57:00,64.9,62.5,29.97,SW,223,1.0,1.0,92,0.00,,,0.00,vanprod-2.5,2014-07-26 10:57:00,
2014-07-26 07:02:00,64.9,62.5,29.96,SW,218,1.0,1.0,92,0.00,,,0.00,vanprod-2.5,2014-07-26 11:02:00,
2014-07-26 07:07:00,65.0,62.6,29.97,SW,216,1.0,2.0,92,0.00,,,0.00,vanprod-2.5,2014-07-26 11:07:00,
2014-07-26 07:12:00,65.0,62.6,29.97,SW,220,0.0,0.0,92,0.00,,,0.00,vanprod-2.5,2014-07-26 11:12:00,
2014-07-26 07:17:00,65.1,62.7,29.96,SSW,210,0.0,0.0,92,0.00,,,0.00,vanprod-2.5,2014-07-26 11:17:00,
2014-07-26 07:22:00,65.1,62.7,29.96,SSW,211,1.0,1.0,92,0.00,,,0.00,vanprod-2.5,2014-07-26 11:22:00,
2014-07-26 07:27:00,65.2,62.8,29.96,SW,215,0.0,0.0,92,0.00,,,0.00,vanprod-2.5,2014-07-26 11:27:00,
2014-07-26 07:32:00,65.3,62.9,29.96,SW,220,2.0,2.0,92,0.00,,,0.00,vanprod-2.5,2014-07-26 11:32:00,
2014-07-26 07:37:00,65.4,62.7,29.96,SW,222,2.0,2.0,91,0.00,,,0.00,vanprod-2.5,2014-07-26 11:37:00,
2014-07-26 07:42:00,65.5,62.8,29.96,SSW,213,1.0,2.0,91,0.00,,,0.00,vanprod-2.5,2014-07-26 11:42:00,
2014-07-26 07:47:00,65.6,62.9,29.96,SW,215,1.0,0.0,91,0.00,,,0.00,vanprod-2.5,2014-07-26 11:47:00,